Location: Newark
(40.2401°N, 1.4101°W)
Time: 03:42:04
(UTC+00:00)

OTV 5 (USA 277) - Visible Passes

Search period start: 17 October 2019 00:00
Search period end: 27 October 2019 00:00
Orbit: 310 x 324 km, 54.5° (Epoch: 08 October)

Date Brightness Start Highest point End Pass type
(mag) Time Alt. Az. Time Alt. Az. Time Alt. Az.
18 Oct ? 04:36:01 14° NNE 04:36:39 15° NNE 04:38:20 10° ENE visible
19 Oct ? 04:50:31 24° N 04:51:25 30° NE 04:53:53 10° E visible
20 Oct ? 05:05:08 38° NW 05:06:02 87° NE 05:08:45 10° SE visible
21 Oct ? 05:19:54 25° WSW 05:20:30 28° SW 05:22:53 10° SSE visible
22 Oct ? 05:34:48 10° SW 05:34:49 10° SW 05:35:01 10° SW visible
